Regional Weather Roundup
Issued by NWS

Home | Current Version | Previous Version | Graphics & Text | Print | Product List | Glossary On
Versions: 1 2 3 4 5 6 7 8 9 10 11 12 13 14 15 16 17 18 19 20 21 22 23 24 25 26 27 28 29 30 31 32 33 34 35 36 37 38 39 40 41 42 43 44 45 46 47 48 49 50
000
ASUS45 KCYS 191310
RWRWY

WYOMING REGIONAL WEATHER ROUNDUP
NATIONAL WEATHER SERVICE CHEYENNE WY
600 AM MST MON FEB 19 2018

NOTE:  "FAIR" INDICATES FEW OR NO CLOUDS BELOW 12,000 FEET
WITH NO SIGNIFICANT WEATHER AND/OR OBSTRUCTIONS TO VISIBILITY.

WYZ001-191400-
YELLOWSTONE NATIONAL PARK

CITY           SKY/WX    TMP DP  RH WIND       PRES   REMARKS
LK YELLOWSTONE   N/A     -2  -6  83 CALM      29.44R
W YELLOWSTONE  NOT AVBL

$$
WYZ002>013-054>058-071-098>099-191400-
NORTHERN WYOMING

CITY           SKY/WX    TMP DP  RH WIND       PRES   REMARKS
JACKSON        FLURRIES  12   6  77 N16       29.45S WCI  -5
CODY           FLURRIES  -4 -10  75 NE10      29.79R WCI -21
GREYBULL       CLOUDY     1  -4  79 NW13      29.85F WCI -17
WORLAND        MOCLDY     2  -3  80 N6        29.83S WCI  -9
SHERIDAN       FAIR      -1  -5  82 NW6       29.90S WCI -13
BUFFALO        LGT SNOW   0  -5  79 N5        29.78F WCI -10
GILLETTE       LGT SNOW  -1  -6  79 N12       29.82F WCI -18
HULETT         CLOUDY     1  -6  71 MISG      29.89S
NEWCASTLE      LGT SNOW   1  -2  85 SE5       29.86R WCI  -8

$$
WYZ014>020-022>026-101>103-191400-
CENTRAL WYOMING

CITY           SKY/WX    TMP DP  RH WIND       PRES   REMARKS
BIG PINEY      LGT SNOW  10   7  87 SW6       29.41F VSB 3/4 WCI   0
PINEDALE       LGT SNOW  14  12  92 CALM      29.41S VSB 3/4
DUBOIS         NOT AVBL
LANDER         LGT SNOW   2  -3  80 N7        29.68R VSB 3/4 WCI -11
RIVERTON       LGT SNOW   1  -4  79 E7        29.68R VSB 1   WCI -12
CASPER         LGT SNOW  -3  -6  87 NE15      29.70F VSB 3/4 WCI -23
DOUGLAS        LGT SNOW   1  -3  83 W5        29.79R VSB 1   WCI  -9

$$
WYZ021-027>030-104>119-191400-
SOUTHERN WYOMING

CITY           SKY/WX    TMP DP  RH WIND       PRES   REMARKS
EVANSTON       CLOUDY    19  16  88 NE7       29.35S WCI  10
FORT BRIDGER   LGT SNOW  16  16 100 SE8       29.40  WCI   5
ROCK SPRINGS   LGT SNOW   3  -2  79 NE20      29.42F VSB 3/4 WCI -18
DIXON          SNOW      13  11  88 SW9       29.39R VSB 1/2 WCI   1
RAWLINS        CLOUDY     0  -5  79 NE16G25   29.43F HAZE    WCI -20
SARATOGA       HVY SNOW   5   5 100 W12       29.39F VSB 1/4 WCI -11
LARAMIE        SNOW       7   5  91 SE30G38   29.42F VSB 1/2 WCI -16
CHEYENNE       CLOUDY     2   0  91 NE8       29.63S WCI -12
TORRINGTON     LGT SNOW   5   0  79 NE9       29.81R WCI  -9
PINE BLUFFS    CLOUDY     5   1  85 N13       29.72F WCI -12

$$



USA.gov is the U.S. government's official web portal to all federal, state and local government web resources and services.